Terminal Aerodrome Forecast
Issued by NWS Detroit/Pontiac, MI

Home | Current Version | Previous Version | Text Only | Print | Product List | Glossary On
Versions: 1 2 3 4 5 6 7 8 9 10 11 12 13 14 15 16 17 18 19 20 21 22 23 24 25 26 27 28 29 30
000
FTUS43 KDTX 212300
TAFDTW
TAF
KDTW 212320Z 2200/2306 34013G23KT P6SM -SHRA SCT016 BKN026 OVC040
     FM220200 33011G19KT P6SM OVC022
     FM221000 32008KT P6SM BKN030
     FM221700 30007KT P6SM SKC
     FM230000 26004KT P6SM SKC=

USA.gov is the U.S. government's official web portal to all federal, state and local government web resources and services.